Simultaneous Nadir Overpasses (SNOs) Predictions

Prediction of SNOs between FY3D and LANDSAT-8 Satellite Orbit:

Table of predicted SNOs for the next 14.0 days since TLE Epoch: 5/30/2020
Index Date (FY3D) Time (FY3D) Lat,Lon (FY3D) SZA (FY3D ) Date (LANDSAT-8) Time (LANDSAT-8) Lat,Lon (LANDSAT-8) SZA (LANDSAT-8 ) Distance(km) Time Diff (sec)
1 05/31/2020 01:04:56 70.54, 160.66 48.50 05/31/2020 01:05:27 70.56, 160.63 48.51 1.83 31
2 05/31/2020 01:55:36 -70.45, -31.87 131.60 05/31/2020 01:54:56 -70.45, -31.89 131.60 1.06 40
3 06/02/2020 17:21:19 70.57, -83.47 48.18 06/02/2020 17:21:55 70.59, -83.44 48.19 2.66 36
4 06/02/2020 18:12:00 -70.46, 84.01 131.93 06/02/2020 18:11:25 -70.48, 84.04 131.92 2.09 35
5 06/05/2020 09:37:43 70.59, 32.40 47.90 06/05/2020 09:38:25 70.56, 32.41 47.87 3.11 42
6 06/05/2020 10:28:24 -70.48,-160.11 132.22 06/05/2020 10:27:55 -70.46,-160.11 132.24 2.72 29
7 06/08/2020 01:54:06 70.57, 148.35 47.62 06/08/2020 01:54:54 70.59, 148.34 47.64 3.28 48
8 06/08/2020 02:44:48 -70.51, -44.23 132.45 06/08/2020 02:44:24 -70.49, -44.18 132.46 2.43 24
9 06/10/2020 18:10:29 70.59, -95.78 47.44 06/10/2020 18:11:23 70.57, -95.81 47.41 2.66 54
10 06/10/2020 19:01:10 -70.48, 71.73 132.69 06/10/2020 19:00:53 -70.47, 71.67 132.69 2.10 17




NCC Satellite Simultaneous Nadir Overpasses (SNOs) Prediction Service
